Date String (YYYY-MM-DD hh:mm:ss) UTC,Instrument flags,absolute air pressure of the measurement (hPa),sample flow rate (lpm),inlet stack bypass flow (lpm),air temperature of the measurement (°C),ambient temperature measured by the external sensor (°C),aerosol sample conditioner tube jacket temperature (°C),OPC LED temperature (°C),internal box temperature (°C),relative humidity of the measurement (%),span deviation,mass concentration of particles derived from Lorenz-Mie calculation of OPC scattering (μg/m³),mass concentration of particles derived from Lorenz-Mie calculation of OPC scattering (μg/m³),mass concentration of particles derived from Lorenz-Mie calculation of OPC scattering (μg/m³)
DateTimeUTC,F1_M11,P_M11,Q1_M11,Q2_M11,T1_M11,T2_M11,T3_M11,T4_M11,T5_M11,U1_M11,ZSPAN_M11,X2_M11,X0_M11,X1_M11
2024-05-18 20:00:00,SystemResetWarning,0828.4,5.01,000.00,024.0,022.8,000.0,032.3,025.7,028.5,0000.0,0004.98,0019.47,0003.38
2024-05-18 20:01:00,SystemResetWarning,0828.5,5.01,000.00,024.1,023.1,000.0,032.3,025.9,028.0,0000.0,0005.09,0021.29,0003.38
2024-05-18 20:02:00,SystemResetWarning,0828.4,5.00,000.00,024.2,023.3,000.0,032.3,026.0,027.5,0000.0,0005.10,0021.37,0003.36
2024-05-18 20:03:00,SystemResetWarning,0828.4,5.00,000.00,024.2,023.5,000.0,032.3,026.1,026.8,0000.0,0005.09,0021.23,0003.36
2024-05-18 20:04:00,SystemResetWarning,0828.4,5.00,000.00,024.3,023.7,000.0,032.3,026.2,026.9,0000.0,0005.13,0021.96,0003.37
2024-05-18 20:05:00,SystemResetWarning,0828.4,5.00,000.00,024.4,023.8,000.0,032.3,026.3,026.7,0000.0,0005.10,0022.01,0003.37
2024-05-18 20:06:00,SystemResetWarning,0828.4,5.00,000.00,024.5,024.0,000.0,032.4,026.4,026.7,0000.0,0005.08,0020.44,0003.39
2024-05-18 20:07:00,SystemResetWarning,0828.4,4.98,000.00,024.5,023.9,000.0,032.4,026.3,027.4,0000.0,0005.00,0020.12,0003.39
2024-05-18 20:08:00,SystemResetWarning,0828.4,5.00,000.00,024.3,022.5,000.0,032.5,025.5,026.9,0000.0,0004.94,0018.90,0003.40
2024-05-18 20:09:00,SystemResetWarning,0828.4,5.01,000.00,024.1,021.9,000.0,032.6,025.1,027.4,0000.0,0004.94,0018.55,0003.40
2024-05-18 20:10:00,SystemResetWarning,0828.3,4.99,000.00,024.0,022.2,000.0,032.5,025.3,027.1,0000.0,0005.01,0018.39,0003.41
2024-05-18 20:11:00,SystemResetWarning,0828.3,4.99,000.00,024.0,022.5,000.0,032.4,025.5,029.0,0000.0,0004.98,0016.81,0003.43
2024-05-18 20:12:00,SystemResetWarning,0828.3,5.01,000.00,024.1,022.8,000.0,032.4,025.7,027.9,0000.0,0004.95,0015.26,0003.43
2024-05-18 20:13:00,SystemResetWarning,0828.3,5.01,000.00,024.2,023.1,000.0,032.3,025.9,028.3,0000.0,0005.02,0015.35,0003.47
2024-05-18 20:14:00,SystemResetWarning,0828.3,4.99,000.00,024.2,023.3,000.0,032.3,026.0,027.5,0000.0,0005.04,0015.91,0003.49
2024-05-18 20:15:00,SystemResetWarning,0828.3,5.00,000.00,024.3,023.5,000.0,032.4,026.1,026.9,0000.0,0005.07,0015.89,0003.51
2024-05-18 20:16:00,SystemResetWarning,0828.3,5.00,000.00,024.4,023.7,000.0,032.4,026.2,027.6,0000.0,0005.09,0015.51,0003.52
2024-05-18 20:17:00,SystemResetWarning,0828.2,5.01,000.00,024.4,023.9,000.0,032.4,026.3,027.0,0000.0,0005.10,0016.19,0003.53
2024-05-18 20:18:00,SystemResetWarning,0828.2,4.98,000.00,024.5,023.5,000.0,032.5,026.1,026.9,0000.0,0005.20,0016.91,0003.55
2024-05-18 20:19:00,SystemResetWarning,0828.2,5.00,000.00,024.2,022.0,000.0,032.6,025.2,027.5,0000.0,0005.26,0017.82,0003.57
2024-05-18 20:20:00,SystemResetWarning,0828.2,5.02,000.00,024.0,022.0,000.0,032.6,025.1,027.6,0000.0,0005.28,0018.62,0003.58
2024-05-18 20:21:00,SystemResetWarning,0828.2,4.97,000.00,024.0,022.3,000.0,032.5,025.3,028.0,0000.0,0005.26,0018.43,0003.59
2024-05-18 20:22:00,SystemResetWarning,0828.2,5.00,000.00,024.0,022.6,000.0,032.4,025.5,027.5,0000.0,0005.25,0018.63,0003.59
2024-05-18 20:23:00,SystemResetWarning,0828.2,5.01,000.00,024.1,022.9,000.0,032.3,025.7,027.4,0000.0,0005.23,0019.86,0003.60
2024-05-18 20:24:00,SystemResetWarning,0828.2,5.01,000.00,024.2,023.1,000.0,032.3,025.9,027.3,0000.0,0005.20,0020.35,0003.60
2024-05-18 20:25:00,SystemResetWarning,0828.2,5.00,000.00,024.2,023.4,000.0,032.3,026.0,027.1,0000.0,0005.21,0019.82,0003.59
2024-05-18 20:26:00,SystemResetWarning,0828.2,5.00,000.00,024.3,023.6,000.0,032.3,026.2,027.2,0000.0,0005.19,0018.91,0003.58
2024-05-18 20:27:00,SystemResetWarning,0828.2,5.00,000.00,024.4,023.8,000.0,032.4,026.3,027.1,0000.0,0005.22,0019.00,0003.58
2024-05-18 20:28:00,SystemResetWarning,0828.2,4.99,000.00,024.4,023.9,000.0,032.4,026.3,027.3,0000.0,0005.26,0020.98,0003.60
2024-05-18 20:29:00,SystemResetWarning,0828.2,4.99,000.00,024.5,023.8,000.0,032.4,026.3,026.5,0000.0,0005.28,0021.88,0003.59
2024-05-18 20:30:00,SystemResetWarning,0828.1,5.00,000.00,024.3,022.0,000.0,032.5,025.3,027.1,0000.0,0005.27,0021.66,0003.57
2024-05-18 20:31:00,SystemResetWarning,0828.1,5.00,000.00,023.9,020.8,000.0,032.6,024.6,027.4,0000.0,0005.25,0021.39,0003.56
2024-05-18 20:32:00,SystemResetWarning,0828.1,5.01,000.00,023.7,021.1,000.0,032.5,024.7,027.9,0000.0,0005.24,0021.65,0003.56
2024-05-18 20:33:00,SystemResetWarning,0828.1,5.00,000.00,023.7,021.5,000.0,032.3,024.9,028.5,0000.0,0005.23,0023.19,0003.56
2024-05-18 20:34:00,SystemResetWarning,0828.1,5.00,000.00,023.7,022.0,000.0,032.3,025.2,029.4,0000.0,0005.20,0023.27,0003.55
2024-05-18 20:35:00,SystemResetWarning,0828.1,5.00,000.00,023.8,022.3,000.0,032.2,025.4,029.2,0000.0,0005.17,0022.97,0003.55
2024-05-18 20:36:00,SystemResetWarning,0828.1,5.00,000.00,023.9,022.7,000.0,032.2,025.5,028.7,0000.0,0005.21,0024.64,0003.56
2024-05-18 20:37:00,SystemResetWarning,0828.1,5.01,000.00,023.9,023.0,000.0,032.2,025.7,027.8,0000.0,0005.24,0025.17,0003.56
2024-05-18 20:38:00,SystemResetWarning,0828.1,5.00,000.00,024.0,023.2,000.0,032.2,025.9,027.4,0000.0,0005.26,0025.21,0003.56
2024-05-18 20:39:00,SystemResetWarning,0828.1,4.99,000.00,024.1,023.4,000.0,032.2,026.0,028.1,0000.0,0005.25,0023.34,0003.55
2024-05-18 20:40:00,SystemResetWarning,0828.1,4.99,000.00,024.2,023.6,000.0,032.2,026.1,027.8,0000.0,0005.22,0022.39,0003.56
2024-05-18 20:41:00,SystemResetWarning,0828.0,4.99,000.00,024.3,023.7,000.0,032.2,026.2,027.6,0000.0,0005.21,0022.65,0003.57
2024-05-18 20:42:00,SystemResetWarning,0828.1,5.01,000.00,024.3,023.9,000.0,032.3,026.3,027.8,0000.0,0005.22,0022.95,0003.58
2024-05-18 20:43:00,SystemResetWarning,0828.0,5.01,000.00,024.4,024.0,000.0,032.3,026.3,027.7,0000.0,0005.24,0024.22,0003.58
2024-05-18 20:44:00,SystemResetWarning,0828.1,5.00,000.00,024.5,023.8,000.0,032.4,026.2,028.1,0000.0,0005.26,0023.21,0003.57
2024-05-18 20:45:00,SystemResetWarning,0828.1,4.98,000.00,024.2,022.0,000.0,032.5,025.2,027.6,0000.0,0005.26,0022.26,0003.57
2024-05-18 20:46:00,SystemResetWarning,0828.0,5.02,000.00,023.8,021.0,000.0,032.5,024.6,027.7,0000.0,0005.29,0023.49,0003.58
2024-05-18 20:47:00,SystemResetWarning,0828.0,5.00,000.00,023.7,021.3,000.0,032.4,024.7,028.1,0000.0,0005.26,0022.86,0003.58
2024-05-18 20:48:00,SystemResetWarning,0828.0,5.00,000.00,023.7,021.7,000.0,032.3,025.0,028.0,0000.0,0005.21,0022.94,0003.60
2024-05-18 20:49:00,SystemResetWarning,0828.0,5.00,000.00,023.7,022.1,000.0,032.2,025.2,028.1,0000.0,0005.21,0022.93,0003.62
2024-05-18 20:50:00,SystemResetWarning,0827.9,5.00,000.00,023.8,022.4,000.0,032.1,025.4,028.5,0000.0,0005.20,0022.50,0003.63
2024-05-18 20:51:00,SystemResetWarning,0827.9,5.00,000.00,023.9,022.7,000.0,032.1,025.6,028.1,0000.0,0005.20,0022.05,0003.64
2024-05-18 20:52:00,SystemResetWarning,0827.9,5.00,000.00,023.9,023.0,000.0,032.1,025.7,028.4,0000.0,0005.21,0023.46,0003.65
2024-05-18 20:53:00,SystemResetWarning,0827.8,5.00,000.00,024.0,023.2,000.0,032.1,025.8,028.1,0000.0,0005.19,0024.11,0003.65
2024-05-18 20:54:00,SystemResetWarning,0827.8,4.99,000.00,024.1,023.4,000.0,032.1,026.0,027.9,0000.0,0005.18,0023.49,0003.65
2024-05-18 20:55:00,SystemResetWarning,0827.9,4.99,000.00,024.2,023.6,000.0,032.2,026.1,027.9,0000.0,0005.14,0020.92,0003.65
2024-05-18 20:56:00,SystemResetWarning,0827.8,4.99,000.00,024.2,023.8,000.0,032.2,026.2,027.3,0000.0,0005.18,0020.63,0003.67
2024-05-18 20:57:00,SystemResetWarning,0827.8,5.01,000.00,024.3,023.9,000.0,032.2,026.3,027.5,0000.0,0005.19,0020.29,0003.68
2024-05-18 20:58:00,SystemResetWarning,0827.8,5.00,000.00,024.4,024.0,000.0,032.3,026.3,028.1,0000.0,0005.17,0019.84,0003.67
2024-05-18 20:59:00,SystemResetWarning,0827.7,4.99,000.00,024.3,022.8,000.0,032.4,025.6,028.0,0000.0,0005.20,0018.90,0003.67
